{"data":{"norad_id":60472,"epoch":"2026-05-25T02:33:50.855904Z","epoch_age_seconds":59009,"freshness":"FRESH","line1":"1 60472U 24149E   26145.10683861  .00003559  00000+0  15283-3 0  9993","line2":"2 60472  97.3758 221.7910 0002438  43.6613 316.4816 15.23332022 98281","mean_motion":15.23332022,"eccentricity":0.0002438,"inclination_deg":97.3758,"raan_deg":221.791,"arg_perigee_deg":43.6613,"mean_anomaly_deg":316.4816,"bstar":0.00015283,"rev_number":9828,"period_min":94.529621855478,"perigee_km":494.12275491922,"apogee_km":497.47448592774,"semimajor_km":6873.9356204235,"source":"CELESTRAK","updated_at":"2026-05-25T13:38:02.088355Z"}}